The Dalles, WA

4:06 PM PST on December 08, 2019 (GMT -0800)
Columbia Gorge Regional-The Dalles

Weather History for KDLS - October, 2019

Change the Weather History Date:

Monday, October 21, 2019

  Actual Average Record
Temperature  
Mean Temperature 56 °F -  
Max Temperature 59 °F 62 °F 82 °F (2003)
Min Temperature 52 °F 41 °F 27 °F (1981)
Degree Days  
Heating Degree Days 10    
Growing Degree Days 6 (Base 50)    
Moisture  
Dew Point 48 °F    
Average Humidity 74    
Maximum Humidity 86    
Minimum Humidity 64    
Precipitation  
Precipitation 0.01 in - - ()
Sea Level Pressure  
Sea Level Pressure 30.21 in    
Wind  
Wind Speed 6 mph (NW)    
Max Wind Speed 15 mph    
Max Gust Speed 22 mph    
Visibility 10 miles    
Events Rain    
Averages and records for this station are not official NWS values.
T = Trace of Precipitation, MM = Missing Value Source: NWS Daily Summary

Daily Weather History Graph

Daily Weather History Graph

Search for Another Location

Airport or City:

Astronomy

Oct. 21, 2019 Rise Set
Actual Time 7:29 AM PDT 6:08 PM PDT
Civil Twilight 6:58 AM PDT 6:39 PM PDT
Nautical Twilight 6:24 AM PDT 7:13 PM PDT
Astronomical Twilight 5:49 AM PDT 7:47 PM PDT
Moon No Moon Rise 3:01 PM PDT (10/21)
Length of Visible Light 11h 40m
Length of Day
10h 39m
Waning Gibbous, 47% of the Moon is Illuminated
Oct 21
Waning Gibbous
Oct 27
New
Nov 4
First Quarter
Nov 12
Full
Nov 19
Last Quarter

Hourly Weather History & Observations

Time (PDT) Temp. Dew Point Humidity Pressure Visibility Wind Dir Wind Speed Gust Speed Precip Events Conditions
12:53 AM 55.9 °F 44.1 °F 64% 30.09 in 10.0 mi Variable 3.5 mph - N/A   Overcast
1:53 AM 55.9 °F 44.1 °F 64% 30.12 in 10.0 mi WNW 15.0 mph 21.9 mph N/A   Overcast
2:53 AM 55.9 °F 44.1 °F 64% 30.14 in 10.0 mi WNW 12.7 mph - N/A   Overcast
3:53 AM 55.0 °F 44.1 °F 67% 30.15 in 10.0 mi NW 6.9 mph - N/A   Overcast
4:53 AM 54.0 °F 45.0 °F 72% 30.17 in 10.0 mi South 4.6 mph - N/A   Overcast
5:53 AM 55.0 °F 45.0 °F 69% 30.20 in 10.0 mi Calm Calm - N/A   Overcast
6:53 AM 53.1 °F 46.9 °F 80% 30.22 in 8.0 mi Calm Calm - 0.00 in Rain Light Rain
7:53 AM 52.0 °F 48.0 °F 86% 30.23 in 10.0 mi Calm Calm - 0.01 in   Overcast
8:53 AM 53.1 °F 48.9 °F 86% 30.24 in 10.0 mi Calm Calm - N/A   Overcast
9:53 AM 55.0 °F 48.9 °F 80% 30.25 in 10.0 mi North 4.6 mph - N/A   Overcast
10:53 AM 55.9 °F 48.0 °F 75% 30.26 in 10.0 mi Calm Calm - N/A   Overcast
11:53 AM 59.0 °F 48.9 °F 69% 30.25 in 10.0 mi Calm Calm - N/A   Overcast
12:53 PM 57.9 °F 48.0 °F 70% 30.23 in 10.0 mi NNW 15.0 mph - N/A   Overcast
1:53 PM 57.9 °F 48.0 °F 70% 30.22 in 10.0 mi NW 5.8 mph - N/A   Overcast
2:53 PM 59.0 °F 48.0 °F 67% 30.22 in 10.0 mi WNW 10.4 mph - N/A   Overcast
3:53 PM 59.0 °F 48.9 °F 69% 30.22 in 10.0 mi NW 15.0 mph - N/A   Overcast
4:53 PM 59.0 °F 48.9 °F 69% 30.21 in 10.0 mi NW 11.5 mph - N/A   Overcast
5:53 PM 57.9 °F 50.0 °F 75% 30.21 in 10.0 mi NW 9.2 mph - N/A   Overcast
6:53 PM 57.9 °F 50.0 °F 75% 30.22 in 10.0 mi Calm Calm - N/A   Overcast
7:53 PM 57.0 °F 50.0 °F 77% 30.23 in 10.0 mi East 4.6 mph - N/A   Overcast
8:53 PM 57.0 °F 50.0 °F 77% 30.23 in 10.0 mi SE 4.6 mph - N/A   Overcast
9:53 PM 57.0 °F 51.1 °F 81% 30.24 in 10.0 mi SSW 3.5 mph - N/A   Overcast
10:53 PM 55.9 °F 51.1 °F 84% 30.24 in 10.0 mi Calm Calm - N/A   Overcast
11:53 PM 55.9 °F 51.1 °F 84% 30.22 in 10.0 mi Calm Calm - N/A   Overcast